When you browse on this site, cookies collect data to enhance your experience and personalize the content and advertising you see.
Visit our Privacy Policy to learn more. By continuing to use the site, you agree to this use of cookies and data.
  • En España
  • Lista de países
  • Para 7 días
  • Temperatura del agua
  • El tiempo en el mapa
  • Informadores
  • user-avatar
    Iniciar sesión

    Tiempo cada hora Alcoi

    Hoy, 17 Febrero, Lunes

    Tiempo Temperatura Precipitaciones Viento Presión Humedad
    00:00 +13°C° 0 mm 2 mps 721 mmHg 74%
    01:00 +13°C° 0 mm 2 mps 720 mmHg 71%
    02:00 +12°C° 0 mm 2 mps 720 mmHg 68%
    03:00 +12°C° 0 mm 2 mps 720 mmHg 65%
    04:00 +12°C° 0 mm 2 mps 720 mmHg 68%
    05:00 +11°C° 0 mm 3 mps 720 mmHg 70%
    06:00 +10°C° 0 mm 3 mps 720 mmHg 74%
    07:00 +12°C° 0 mm 3 mps 721 mmHg 69%
    08:00 +13°C° 0 mm 3 mps 721 mmHg 65%
    09:00 +16°C° 0 mm 3 mps 721 mmHg 60%
    10:00 +17°C° 0 mm 4 mps 721 mmHg 53%
    11:00 +19°C° 0 mm 4 mps 721 mmHg 46%
    12:00 +20°C° 0 mm 4 mps 721 mmHg 39%
    13:00 +20°C° 0 mm 4 mps 721 mmHg 40%
    14:00 +20°C° 0 mm 5 mps 720 mmHg 41%
    15:00 +20°C° 0 mm 6 mps 720 mmHg 42%
    16:00 +19°C° 0 mm 5 mps 720 mmHg 48%
    17:00 +17°C° 0 mm 4 mps 720 mmHg 55%
    18:00 +15°C° 0 mm 4 mps 720 mmHg 62%
    19:00 +14°C° 0 mm 3 mps 721 mmHg 66%
    20:00 +14°C° 0 mm 2 mps 721 mmHg 71%
    21:00 +13°C° 0 mm 2 mps 722 mmHg 75%
    22:00 +13°C° 0 mm 2 mps 722 mmHg 76%
    23:00 +12°C° 0 mm 3 mps 722 mmHg 78%

    Mañana, 18 Febrero, Martes

    Tiempo Temperatura Precipitaciones Viento Presión Humedad
    00:00 +11°C° 0 mm 3 mps 722 mmHg 79%
    01:00 +11°C° 0 mm 4 mps 722 mmHg 80%
    02:00 +10°C° 0 mm 4 mps 722 mmHg 81%
    03:00 +8°C° 0 mm 4 mps 722 mmHg 83%
    04:00 +9°C° 0 mm 3 mps 723 mmHg 84%
    05:00 +9°C° 0 mm 3 mps 723 mmHg 86%
    06:00 +9°C° 0 mm 3 mps 723 mmHg 87%
    07:00 +10°C° 0 mm 3 mps 724 mmHg 87%
    08:00 +10°C° 0 mm 2 mps 724 mmHg 88%
    09:00 +10°C° 0 mm 2 mps 724 mmHg 88%
    10:00 +10°C° 0 mm 2 mps 724 mmHg 88%
    11:00 +12°C° 0 mm 2 mps 724 mmHg 87%
    12:00 +12°C° 0 mm 2 mps 724 mmHg 87%
    13:00 +12°C° 0 mm 2 mps 724 mmHg 86%
    14:00 +12°C° 0 mm 2 mps 723 mmHg 85%
    15:00 +12°C° 0 mm 2 mps 723 mmHg 84%
    16:00 +11°C° 0 mm 1 mps 723 mmHg 85%
    17:00 +11°C° 0 mm 1 mps 723 mmHg 86%
    18:00 +11°C° 0 mm 1 mps 723 mmHg 87%
    19:00 +11°C° 0 mm 1 mps 723 mmHg 89%
    20:00 +10°C° 0 mm 1 mps 723 mmHg 90%
    21:00 +10°C° 0 mm 1 mps 723 mmHg 92%
    22:00 +10°C° 0 mm 1 mps 723 mmHg 92%
    23:00 +10°C° 0 mm 1 mps 723 mmHg 91%

    Pasado mañana, 19 Febrero, Miércoles

    Tiempo Temperatura Precipitaciones Viento Presión Humedad
    00:00 +9°C° 0 mm 0 mps 723 mmHg 91%
    01:00 +9°C° 0 mm 0 mps 723 mmHg 91%
    02:00 +9°C° 0 mm 0 mps 723 mmHg 90%
    03:00 +9°C° 0 mm 0 mps 723 mmHg 89%
    04:00 +9°C° 0 mm 0 mps 723 mmHg 89%
    05:00 +9°C° 0 mm 0 mps 723 mmHg 88%
    06:00 +9°C° 0 mm 0 mps 723 mmHg 87%
    07:00 +10°C° 0 mm 0 mps 723 mmHg 84%
    08:00 +10°C° 0 mm 0 mps 723 mmHg 80%
    09:00 +10°C° 0 mm 0 mps 724 mmHg 77%
    10:00 +11°C° 0 mm 0 mps 724 mmHg 74%
    11:00 +13°C° 0 mm 1 mps 724 mmHg 72%
    12:00 +13°C° 0 mm 1 mps 724 mmHg 69%
    13:00 +13°C° 0 mm 1 mps 724 mmHg 69%
    14:00 +13°C° 0 mm 1 mps 723 mmHg 69%
    15:00 +13°C° 0 mm 1 mps 723 mmHg 69%
    16:00 +13°C° 0 mm 1 mps 722 mmHg 72%
    17:00 +12°C° 0 mm 2 mps 722 mmHg 75%
    18:00 +10°C° 0 mm 2 mps 721 mmHg 79%
    19:00 +10°C° 0 mm 2 mps 722 mmHg 83%
    20:00 +9°C° 0 mm 2 mps 722 mmHg 87%
    21:00 +9°C° 0 mm 1 mps 722 mmHg 91%
    22:00 +9°C° 0 mm 1 mps 721 mmHg 91%
    23:00 +8°C° 0 mm 1 mps 721 mmHg 92%

    20 Febrero, Jueves

    Tiempo Temperatura Precipitaciones Viento Presión Humedad
    00:00 +8°C° 0 mm 1 mps 721 mmHg 92%
    01:00 +8°C° 0 mm 1 mps 720 mmHg 91%
    02:00 +7°C° 0 mm 1 mps 720 mmHg 91%
    03:00 +7°C° 0 mm 1 mps 719 mmHg 90%
    04:00 +7°C° 0 mm 1 mps 719 mmHg 89%
    05:00 +7°C° 0 mm 1 mps 718 mmHg 89%
    06:00 +6°C° 0 mm 1 mps 718 mmHg 88%
    07:00 +8°C° 0 mm 1 mps 718 mmHg 82%
    08:00 +9°C° 0 mm 2 mps 719 mmHg 76%
    09:00 +12°C° 0 mm 2 mps 719 mmHg 70%
    10:00 +13°C° 0 mm 2 mps 719 mmHg 63%
    11:00 +14°C° 0 mm 2 mps 718 mmHg 57%
    12:00 +16°C° 0 mm 2 mps 718 mmHg 50%
    13:00 +16°C° 0 mm 2 mps 718 mmHg 49%
    14:00 +17°C° 0 mm 2 mps 717 mmHg 48%
    15:00 +17°C° 0 mm 2 mps 717 mmHg 47%
    16:00 +15°C° 0 mm 2 mps 717 mmHg 57%
    17:00 +13°C° 0 mm 2 mps 716 mmHg 68%
    18:00 +11°C° 0 mm 1 mps 716 mmHg 78%
    19:00 +11°C° 0 mm 1 mps 716 mmHg 81%
    20:00 +10°C° 0 mm 1 mps 717 mmHg 84%
    21:00 +10°C° 0 mm 1 mps 717 mmHg 87%
    22:00 +9°C° 0 mm 1 mps 718 mmHg 88%
    23:00 +9°C° 0 mm 1 mps 718 mmHg 90%

    21 Febrero, Viernes

    Tiempo Temperatura Precipitaciones Viento Presión Humedad
    00:00 +8°C° 0 mm 1 mps 718 mmHg 91%
    01:00 +8°C° 0 mm 1 mps 718 mmHg 92%
    02:00 +7°C° 0 mm 2 mps 718 mmHg 93%
    03:00 +7°C° 0 mm 2 mps 719 mmHg 94%
    04:00 +7°C° 0 mm 2 mps 719 mmHg 93%
    05:00 +8°C° 0 mm 3 mps 720 mmHg 93%
    06:00 +8°C° 0 mm 3 mps 720 mmHg 92%
    13:00 +12°C° 0 mm 4 mps 723 mmHg 66%
    14:00 +12°C° 0 mm 4 mps 723 mmHg 65%
    15:00 +13°C° 0 mm 4 mps 722 mmHg 63%
    16:00 +11°C° 0 mm 3 mps 722 mmHg 70%
    17:00 +10°C° 0 mm 3 mps 722 mmHg 77%
    18:00 +9°C° 0 mm 2 mps 722 mmHg 83%
    19:00 +8°C° 0 mm 2 mps 723 mmHg 85%
    20:00 +8°C° 0 mm 2 mps 723 mmHg 86%
    21:00 +7°C° 0 mm 2 mps 724 mmHg 88%
    22:00 +7°C° 0 mm 2 mps 724 mmHg 87%
    23:00 +7°C° 0 mm 2 mps 724 mmHg 87%

    22 Febrero, Sábado

    Tiempo Temperatura Precipitaciones Viento Presión Humedad
    00:00 +7°C° 0 mm 2 mps 725 mmHg 86%
    01:00 +7°C° 0 mm 2 mps 725 mmHg 87%
    02:00 +8°C° 0 mm 1 mps 724 mmHg 87%
    03:00 +8°C° 0 mm 1 mps 724 mmHg 88%
    04:00 +7°C° 0 mm 1 mps 724 mmHg 88%
    05:00 +6°C° 0 mm 1 mps 724 mmHg 89%
    06:00 +6°C° 0 mm 1 mps 724 mmHg 90%
    07:00 +7°C° 0 mm 1 mps 725 mmHg 83%
    08:00 +9°C° 0 mm 1 mps 725 mmHg 76%
    09:00 +11°C° 0 mm 1 mps 726 mmHg 69%
    10:00 +12°C° 0 mm 1 mps 726 mmHg 63%
    11:00 +13°C° 0 mm 1 mps 726 mmHg 57%
    12:00 +15°C° 0 mm 1 mps 727 mmHg 51%
    13:00 +15°C° 0 mm 2 mps 726 mmHg 51%
    14:00 +15°C° 0 mm 2 mps 726 mmHg 51%
    15:00 +16°C° 0 mm 2 mps 726 mmHg 51%
    16:00 +14°C° 0 mm 2 mps 726 mmHg 60%
    17:00 +12°C° 0 mm 1 mps 726 mmHg 69%
    18:00 +11°C° 0 mm 1 mps 726 mmHg 79%
    19:00 +10°C° 0 mm 1 mps 726 mmHg 81%
    20:00 +9°C° 0 mm 1 mps 726 mmHg 84%
    21:00 +8°C° 0 mm 0 mps 726 mmHg 86%
    22:00 +7°C° 0 mm 0 mps 726 mmHg 87%
    23:00 +7°C° 0 mm 0 mps 726 mmHg 88%
    Mostrar más